USA 149 DEB

Satellite information

Favourite Embed

Satellite Type and Status

DEBRISIN ORBIT

Key statistics

Satellite USA 149 DEB at a glance.

Uptime

9353

Days in orbit

Revolutions

≈ 1.0

Per day

Orbit

OTHER

Other

Inclination

13.6

Latest

Satellite identification and parameters

Extended collection of information and parameters for USA 149 DEB.

Object identification

Identified? True

Debris? True

Object name: USA 149 DEB

International designator: 2000-024E

Object number (NORAD): 28156

Object ID (CCSDS): 28156

Country: UNITED STATES OF AMERICA (US)

Current information (Y/N): Y

Orbital parameters

Period: 1443.449 minutes

Inclination: 13.5802 deg

SMA: 42308.521 km

Apoapsis: 36624.219 km

Periapsis: 35236.553 km

RAAN: 12.8311 deg

Eccentricy: 0.01639937

Argument of periapsis: 268.2119 deg

Mean anomaly: 89.8918 deg

Mean motion: 0.99761045 rev/day

Mean motion (dot): -0.00000019 rev/day2

B* drag term: 0.0 1/REarth

Two-line elements (TLE)

Creation date: Dec. 14, 2025, 11:30 a.m.

Reference frame: TEME

Reference center: EARTH

Epoch: Dec. 13, 2025, 3:38 a.m. UTC

TLE line 0: 0 USA 149 DEB

TLE line 1: 1 28156U 00024E 25347.15155791 -.00000019 00000-0 00000-0 0 9994

TLE line 2: 2 28156 13.5802 12.8311 0163994 268.2119 89.8918 0.99761045 22806

Live tracking on map

Real-time ground track for satellite USA 149 DEB.

In-orbit conjunctions

A list of the most updated potential collisions computed for object USA 149 DEB.

Target Orbit TCA Probability of collision Miss distance Type
RADUGA 22 OTHER 2024-08-21 16:17:04 TBA 4992.0 (m) PAYLOAD

Associated space launch

Early warning satellite

USA 149 DEB was lifted into orbit during the mission ‘Titan 402B IUS | DSP 20’, on board a Titan 402B IUS space rocket.

The launch took place on May 8, 2000, 4:01 p.m. from Space Launch Complex 40.

For more information about the launch, click the button.

Launch to space Titan 402B IUS | DSP 20
Titan 402B IUS | DSP 20

Agency: N/A

Status: Launch Successful

Launch date: May 8, 2000, 4:01 p.m. UTC

Rocket: Titan 402B IUS

Launch pad: Space Launch Complex 40

Location: Cape Canaveral SFS, FL, USA

...

Latest news about this satellite

There are no fresh news available about this satellite. Check back as we update our databases every day.


Newsletter sign-up

Weekly statistics, charts and insights to help you stay on top of the space industry.